GW0254 Weather Reports


Display with metric or nautical units.
time (UTC)temp
F
wind
direction
speed
MPH
gust
MPH
rain 1hr
in
rain 24hr
in
rain mn
in
humidity
%
barometer
mb
20260508031026 54 0 1.0 4.0 0.00 0.00 0.00 55 1023.4
20260508030526 54 0 0.0 4.0 0.00 0.00 0.00 53 1023.2
20260508030046 55 189 1.0 4.0 0.00 0.00 0.00 52 1023.3
20260508025527 55 0 1.0 4.0 0.00 0.00 0.00 50 1023.3
20260508025027 55 189 0.0 3.0 0.00 0.00 0.00 48 1023.2
20260508024556 55 0 0.0 3.0 0.00 0.00 0.00 48 1023.1
20260508024027 56 189 0.0 3.0 0.00 0.00 0.00 46 1023.0
20260508023526 56 189 1.0 3.0 0.00 0.00 0.00 45 1022.9
20260508023039 57 189 1.0 3.0 0.00 0.00 0.00 42 1022.9
20260508022531 57 0 0.0 4.0 0.00 0.00 0.00 41 1022.9
20260508022027 57 0 1.0 4.0 0.00 0.00 0.00 40 1022.9
20260508021545 58 189 0.0 4.0 0.00 0.00 0.00 38 1022.9
20260508021031 58 189 0.0 4.0 0.00 0.00 0.00 38 1022.9
20260508020552 58 196 0.0 4.0 0.00 0.00 0.00 37 1022.8
20260508020051 59 196 2.0 5.0 0.00 0.00 0.00 36 1022.8
20260508015526 59 200 2.0 7.0 0.00 0.00 0.00 37 1022.9
20260508015026 59 192 1.0 7.0 0.00 0.00 0.00 36 1022.8
20260508014544 59 225 2.0 7.0 0.00 0.00 0.00 36 1022.8
20260508014027 59 258 0.0 7.0 0.00 0.00 0.00 37 1022.9
20260508013526 59 240 1.0 9.0 0.00 0.00 0.00 36 1022.8
20260508013043 60 231 2.0 9.0 0.00 0.00 0.00 37 1022.7
20260508012526 60 275 1.0 4.0 0.00 0.00 0.00 39 1022.7
20260508012026 60 250 1.0 7.0 0.00 0.00 0.00 40 1022.7
20260508011540 60 249 0.0 7.0 0.00 0.00 0.00 40 1022.7
20260508011026 60 0 1.0 8.0 0.00 0.00 0.00 40 1022.7
20260508010526 60 175 2.0 8.0 0.00 0.00 0.00 38 1022.7
20260508010051 60 191 2.0 8.0 0.00 0.00 0.00 43 1022.7
20260508005526 60 0 1.0 7.0 0.00 0.00 0.00 42 1022.7
20260508005026 60 194 2.0 8.0 0.00 0.00 0.00 42 1022.7
20260508004547 60 197 2.0 13.0 0.00 0.00 0.00 42 1022.6
20260508004025 60 173 2.0 14.0 0.00 0.00 0.00 43 1022.7
20260508003526 61 149 3.0 15.0 0.00 0.00 0.00 42 1022.7
20260508003043 61 192 4.0 15.0 0.00 0.00 0.00 41 1022.7
20260508002526 62 259 3.0 9.0 0.00 0.00 0.00 40 1022.7
20260508002024 62 0 2.0 9.0 0.00 0.00 0.00 38 1022.7
20260508001545 62 289 1.0 9.0 0.00 0.00 0.00 38 1022.7
20260508001027 62 183 3.0 11.0 0.00 0.00 0.00 36 1022.7
20260508000529 62 277 4.0 11.0 0.00 0.00 0.00 35 1022.7
20260508000041 63 175 4.0 11.0 0.00 0.00 0.00 34 1022.6
20260507235527 63 165 4.0 11.0 0.00 0.00 0.00 35 1022.6
20260507235027 64 177 4.0 11.0 0.00 0.00 0.00 35 1022.6
20260507234546 64 170 2.0 15.0 0.00 0.00 0.00 35 1022.7
20260507234026 64 215 3.0 15.0 0.00 0.00 0.00 35 1022.7
20260507233527 64 178 5.0 15.0 0.00 0.00 0.00 35 1022.7
20260507233046 64 315 2.0 10.0 0.00 0.00 0.00 35 1022.8
20260507232525 65 171 4.0 13.0 0.00 0.00 0.00 32 1022.7
20260507232026 65 42 3.0 13.0 0.00 0.00 0.00 34 1022.7
20260507231548 65 185 2.0 12.0 0.00 0.00 0.00 33 1022.7
20260507231026 65 205 4.0 12.0 0.00 0.00 0.00 32 1022.7
20260507230527 65 246 3.0 15.0 0.00 0.00 0.00 33 1022.7
20260507230047 65 128 5.0 16.0 0.00 0.00 0.00 33 1022.7
20260507225527 65 175 4.0 16.0 0.00 0.00 0.00 34 1022.7
20260507225057 65 177 2.0 18.0 0.00 0.00 0.00 33 1022.7
20260507224542 65 195 5.0 18.0 0.00 0.00 0.00 33 1022.8
20260507224027 66 189 3.0 12.0 0.00 0.00 0.00 33 1022.7
20260507223527 66 199 3.0 14.0 0.00 0.00 0.00 33 1022.7
20260507223039 65 136 3.0 15.0 0.00 0.00 0.00 32 1022.9
20260507222526 65 195 6.0 19.0 0.00 0.00 0.00 31 1022.9
20260507222026 66 215 4.0 19.0 0.00 0.00 0.00 33 1022.9
20260507221545 65 235 2.0 18.0 0.00 0.00 0.00 35 1022.9
20260507221025 65 238 6.0 18.0 0.00 0.00 0.00 33 1023.1
20260507220524 66 187 3.0 15.0 0.00 0.00 0.00 34 1023.2
20260507220043 66 188 3.0 15.0 0.00 0.00 0.00 34 1023.1
20260507215525 66 159 3.0 15.0 0.00 0.00 0.00 35 1023.1
20260507215026 65 196 4.0 14.0 0.00 0.00 0.00 35 1023.2
20260507214548 65 167 6.0 14.0 0.00 0.00 0.00 33 1023.2
20260507214024 65 203 7.0 14.0 0.00 0.00 0.00 34 1023.3
20260507213528 65 166 7.0 16.0 0.00 0.00 0.00 32 1023.2
20260507213047 65 164 5.0 17.0 0.00 0.00 0.00 36 1023.3
20260507212524 65 182 6.0 17.0 0.00 0.00 0.00 36 1023.3
20260507212026 66 173 6.0 15.0 0.00 0.00 0.00 34 1023.4
20260507211542 66 113 6.0 15.0 0.00 0.00 0.00 36 1023.5
20260507211027 65 202 5.0 15.0 0.00 0.00 0.00 35 1023.5
20260507210525 65 196 6.0 17.0 0.00 0.00 0.00 34 1023.5
20260507210047 65 209 5.0 17.0 0.00 0.00 0.00 37 1023.5
20260507205526 65 163 5.0 16.0 0.00 0.00 0.00 37 1023.6
20260507205025 65 196 5.0 16.0 0.00 0.00 0.00 38 1023.7
20260507204541 64 189 5.0 16.0 0.00 0.00 0.00 40 1023.8
20260507204025 64 157 3.0 11.0 0.00 0.00 0.00 40 1023.8
20260507203527 63 211 5.0 11.0 0.00 0.00 0.00 41 1024.0
20260507203043 63 205 4.0 10.0 0.00 0.00 0.00 46 1024.0
20260507202525 63 140 4.0 9.0 0.00 0.00 0.00 43 1024.0
20260507202026 63 178 4.0 9.0 0.00 0.00 0.00 43 1024.0
20260507201545 63 184 3.0 9.0 0.00 0.00 0.00 44 1024.1
20260507201024 62 197 3.0 8.0 0.00 0.00 0.00 50 1024.2
20260507200524 61 182 3.0 11.0 0.00 0.00 0.00 49 1024.3
20260507200037 61 169 4.0 11.0 0.00 0.00 0.00 48 1024.3
20260507195526 61 173 4.0 8.0 0.00 0.00 0.00 45 1024.3
20260507195025 62 178 3.0 7.0 0.00 0.00 0.00 44 1024.4
20260507194548 63 171 3.0 7.0 0.00 0.00 0.00 44 1024.4
20260507194026 62 188 2.0 7.0 0.00 0.00 0.00 46 1024.4
20260507193524 62 153 3.0 8.0 0.00 0.00 0.00 47 1024.4
20260507193043 62 169 4.0 8.0 0.00 0.00 0.00 47 1024.4
20260507192524 62 130 2.0 8.0 0.00 0.00 0.00 46 1024.5
20260507192026 61 186 2.0 8.0 0.00 0.00 0.00 47 1024.4
20260507191542 61 197 2.0 7.0 0.00 0.00 0.00 47 1024.5
20260507191026 61 178 3.0 7.0 0.00 0.00 0.00 44 1024.5
20260507190526 61 145 3.0 7.0 0.00 0.00 0.00 46 1024.6
20260507190040 61 168 3.0 7.0 0.00 0.00 0.00 43 1024.6
20260507185528 62 133 3.0 8.0 0.00 0.00 0.00 44 1024.7
20260507185027 62 161 2.0 8.0 0.00 0.00 0.00 43 1024.8
20260507184546 62 188 2.0 8.0 0.00 0.00 0.00 44 1024.8
20260507184027 61 192 2.0 8.0 0.00 0.00 0.00 48 1024.7
20260507183529 60 207 4.0 8.0 0.00 0.00 0.00 44 1024.7
20260507183049 60 186 3.0 7.0 0.00 0.00 0.00 45 1024.9
20260507182526 60 142 3.0 7.0 0.00 0.00 0.00 45 1024.9
20260507182026 60 190 3.0 7.0 0.00 0.00 0.00 47 1024.8
20260507181544 60 188 3.0 7.0 0.00 0.00 0.00 47 1024.8
20260507181025 59 186 2.0 7.0 0.00 0.00 0.00 53 1024.7
20260507180524 59 192 2.0 7.0 0.00 0.00 0.00 53 1024.8
20260507180052 59 191 4.0 8.0 0.00 0.00 0.00 54 1024.8
20260507175525 59 169 3.0 8.0 0.00 0.00 0.00 55 1024.8
20260507175026 59 157 2.0 6.0 0.00 0.00 0.00 55 1024.8
20260507174541 59 188 2.0 6.0 0.00 0.00 0.00 59 1024.8
20260507174025 59 190 3.0 7.0 0.00 0.00 0.00 57 1024.8
20260507173527 58 178 2.0 7.0 0.00 0.00 0.00 62 1024.8
20260507173049 58 180 1.0 6.0 0.00 0.00 0.00 64 1024.7
20260507172527 57 179 2.0 6.0 0.00 0.00 0.00 62 1024.7
20260507172023 57 181 3.0 6.0 0.00 0.00 0.00 63 1024.7
20260507171600 56 176 3.0 6.0 0.00 0.00 0.00 66 1024.7
20260507171025 56 140 3.0 6.0 0.00 0.00 0.00 66 1024.7
20260507170527 56 186 2.0 7.0 0.00 0.00 0.00 70 1024.7
20260507170045 56 168 4.0 7.0 0.00 0.00 0.00 68 1024.7
20260507165525 56 161 3.0 7.0 0.00 0.00 0.00 70 1024.8
20260507165025 55 161 2.0 7.0 0.00 0.00 0.00 71 1024.8
20260507164548 55 157 3.0 7.0 0.00 0.00 0.00 70 1024.8
20260507164025 56 171 3.0 6.0 0.00 0.00 0.00 69 1024.7
20260507163525 56 187 2.0 5.0 0.00 0.00 0.00 70 1024.7
20260507163049 55 187 2.0 6.0 0.00 0.00 0.00 71 1024.7
20260507162525 55 187 2.0 6.0 0.00 0.00 0.00 70 1024.7
20260507162027 55 182 2.0 6.0 0.00 0.00 0.00 70 1024.7
20260507161546 55 179 1.0 6.0 0.00 0.00 0.00 72 1024.7
20260507161026 55 179 2.0 4.0 0.00 0.00 0.00 72 1024.7
20260507160527 55 179 1.0 4.0 0.00 0.00 0.00 73 1024.8
20260507160048 54 179 2.0 4.0 0.00 0.00 0.00 74 1024.8
20260507155526 54 179 1.0 6.0 0.00 0.00 0.00 73 1024.7
20260507155026 54 179 1.0 6.0 0.00 0.00 0.00 74 1024.6
20260507154538 53 179 2.0 6.0 0.00 0.00 0.00 74 1024.7
20260507154026 53 179 2.0 5.0 0.00 0.00 0.00 74 1024.8
20260507153526 53 179 2.0 4.0 0.00 0.00 0.00 75 1024.8
20260507153045 53 179 1.0 5.0 0.00 0.00 0.00 75 1024.7
20260507152526 53 179 2.0 5.0 0.00 0.00 0.00 74 1024.8
20260507152026 53 179 1.0 5.0 0.00 0.00 0.00 74 1024.8
20260507151543 53 179 1.0 4.0 0.00 0.00 0.00 74 1024.7
20260507151026 53 179 1.0 4.0 0.00 0.00 0.00 73 1024.6
20260507150529 52 179 1.0 4.0 0.00 0.00 0.00 74 1024.8
20260507150037 53 179 1.0 4.0 0.00 0.00 0.00 74 1024.8
20260507145526 52 179 1.0 4.0 0.00 0.00 0.00 74 1024.8
20260507145029 52 179 1.0 4.0 0.00 0.00 0.00 73 1024.7
20260507144545 53 0 0.0 0.0 0.00 0.00 0.00 72 1024.7
20260507144025 53 0 0.0 0.0 0.00 0.00 0.00 73 1024.8
20260507143526 53 0 0.0 0.0 0.00 0.00 0.00 74 1024.8
20260507143048 53 0 0.0 0.0 0.00 0.00 0.00 72 1024.7
20260507142526 53 0 0.0 0.0 0.00 0.00 0.00 74 1024.7
20260507142026 52 0 0.0 0.0 0.00 0.00 0.00 74 1024.7
20260507141545 51 0 0.0 0.0 0.00 0.00 0.00 77 1024.7
20260507141027 50 0 0.0 0.0 0.00 0.00 0.00 77 1024.6
20260507140527 49 0 0.0 0.0 0.00 0.00 0.00 80 1024.6
20260507140043 48 0 0.0 0.0 0.00 0.00 0.00 80 1024.6
20260507135524 47 0 0.0 0.0 0.00 0.00 0.00 81 1024.6
20260507135024 47 0 0.0 0.0 0.00 0.00 0.00 82 1024.5
20260507134538 46 0 0.0 0.0 0.00 0.00 0.00 83 1024.5
20260507134025 46 0 0.0 0.0 0.00 0.00 0.00 84 1024.4
20260507133526 46 0 0.0 0.0 0.00 0.00 0.00 84 1024.4
20260507133104 45 0 0.0 0.0 0.00 0.00 0.00 84 1024.3
20260507132525 46 0 0.0 0.0 0.00 0.00 0.00 83 1024.3
20260507132025 46 0 0.0 0.0 0.00 0.00 0.00 83 1024.3
20260507131544 46 0 0.0 0.0 0.00 0.00 0.00 83 1024.2
20260507131027 46 0 0.0 0.0 0.00 0.00 0.00 82 1024.2
20260507130526 46 0 0.0 0.0 0.00 0.00 0.00 82 1024.2
20260507130051 46 0 0.0 0.0 0.00 0.00 0.00 82 1024.2
20260507125525 46 0 0.0 0.0 0.00 0.01 0.00 82 1024.2
20260507125025 46 0 0.0 0.0 0.00 0.01 0.00 80 1024.2
20260507124557 46 0 0.0 0.0 0.00 0.01 0.00 79 1024.1
20260507124026 46 0 0.0 0.0 0.00 0.01 0.00 80 1024.1
20260507123526 46 0 0.0 0.0 0.00 0.01 0.00 80 1024.2
20260507123039 46 0 0.0 0.0 0.00 0.01 0.00 80 1024.1
20260507122525 47 0 0.0 0.0 0.00 0.01 0.00 79 1024.1
20260507122026 47 0 0.0 0.0 0.00 0.01 0.00 79 1024.2
20260507121544 47 0 0.0 0.0 0.00 0.01 0.00 79 1024.2
20260507121027 47 0 0.0 0.0 0.00 0.01 0.00 79 1024.2
20260507120529 47 0 0.0 0.0 0.00 0.01 0.00 77 1024.1
20260507120043 47 0 0.0 0.0 0.00 0.01 0.00 77 1024.1
20260507115526 48 0 0.0 0.0 0.00 0.01 0.00 76 1024.1
20260507115031 48 0 0.0 0.0 0.00 0.01 0.00 76 1024.0
20260507114558 47 0 0.0 0.0 0.00 0.01 0.00 77 1024.0
20260507114024 47 0 0.0 0.0 0.00 0.01 0.00 77 1024.0
20260507113524 47 0 0.0 0.0 0.00 0.01 0.00 77 1024.0
20260507113039 47 0 0.0 0.0 0.00 0.01 0.00 77 1024.1
20260507112524 47 0 0.0 0.0 0.00 0.01 0.00 78 1024.0
20260507112026 47 0 0.0 0.0 0.00 0.01 0.00 78 1024.2
20260507111545 47 0 0.0 0.0 0.00 0.01 0.00 79 1024.2
20260507111026 47 0 0.0 0.0 0.00 0.01 0.00 79 1024.2
20260507110527 48 0 0.0 0.0 0.00 0.01 0.00 80 1024.2
20260507110046 48 0 0.0 0.0 0.00 0.01 0.00 79 1024.3
20260507105524 48 0 0.0 0.0 0.00 0.01 0.00 79 1024.2
20260507105026 48 0 0.0 0.0 0.00 0.01 0.00 78 1024.3
20260507104551 48 0 0.0 0.0 0.00 0.01 0.00 77 1024.2
20260507104029 48 0 0.0 0.0 0.00 0.01 0.00 77 1024.3
20260507103527 48 0 0.0 0.0 0.00 0.01 0.00 77 1024.4
20260507103040 48 0 0.0 0.0 0.00 0.01 0.00 76 1024.4
20260507102524 48 0 0.0 0.0 0.00 0.01 0.00 77 1024.5
20260507102025 48 0 0.0 0.0 0.00 0.01 0.00 77 1024.5
20260507101541 48 0 0.0 0.0 0.00 0.01 0.00 77 1024.4
20260507101023 49 0 0.0 0.0 0.00 0.01 0.00 76 1024.5
20260507100524 49 0 0.0 0.0 0.00 0.01 0.00 76 1024.5
20260507100048 49 0 0.0 0.0 0.00 0.01 0.00 76 1024.4
20260507095526 49 0 0.0 1.0 0.00 0.01 0.00 76 1024.4
20260507095026 49 0 0.0 2.0 0.00 0.01 0.00 76 1024.5
20260507094546 49 0 0.0 2.0 0.00 0.01 0.00 76 1024.5
20260507094025 49 179 1.0 2.0 0.00 0.01 0.00 75 1024.5
20260507093525 49 179 1.0 3.0 0.00 0.01 0.00 75 1024.6
20260507093045 49 179 1.0 3.0 0.00 0.01 0.00 75 1024.7
20260507092526 49 179 2.0 3.0 0.00 0.01 0.00 75 1024.6
20260507092026 49 179 0.0 3.0 0.00 0.01 0.00 75 1024.7
20260507091543 49 0 0.0 2.0 0.00 0.01 0.00 75 1024.7
20260507091024 49 179 1.0 2.0 0.00 0.01 0.00 74 1024.6
20260507090525 49 179 1.0 2.0 0.00 0.01 0.00 74 1024.8
20260507090040 49 179 1.0 2.0 0.00 0.01 0.00 74 1024.7
20260507085524 49 179 1.0 2.0 0.00 0.01 0.00 74 1024.9
20260507085024 49 179 1.0 2.0 0.00 0.01 0.00 74 1024.9
20260507084537 49 179 1.0 2.0 0.00 0.01 0.00 74 1024.9
20260507084025 49 179 1.0 3.0 0.00 0.01 0.00 73 1025.0
20260507083527 49 179 1.0 3.0 0.00 0.01 0.00 73 1025.0
20260507083044 49 179 1.0 2.0 0.00 0.01 0.00 73 1024.9
20260507082524 50 179 1.0 3.0 0.00 0.01 0.00 73 1025.0
20260507082025 50 179 1.0 3.0 0.00 0.01 0.00 72 1025.0
20260507081544 50 179 2.0 3.0 0.00 0.01 0.00 72 1025.0
20260507081026 50 179 1.0 3.0 0.00 0.01 0.00 71 1025.1
20260507080527 50 179 1.0 3.0 0.00 0.01 0.00 71 1025.0
20260507080042 50 179 1.0 3.0 0.00 0.01 0.00 71 1025.1
20260507075526 50 179 1.0 3.0 0.00 0.01 0.00 71 1025.1
20260507075024 50 179 2.0 3.0 0.00 0.01 0.00 71 1025.0
20260507074545 50 179 1.0 2.0 0.00 0.01 0.00 71 1025.0
20260507074023 50 179 1.0 2.0 0.00 0.01 0.00 70 1025.1
20260507073525 50 179 1.0 4.0 0.00 0.01 0.00 70 1025.0
20260507073043 50 179 1.0 4.0 0.00 0.01 0.00 69 1025.1
20260507072525 50 179 2.0 4.0 0.00 0.01 0.00 69 1025.1
20260507072024 51 179 1.0 3.0 0.00 0.01 0.00 69 1025.1
20260507071550 51 179 1.0 3.0 0.00 0.01 0.00 69 1025.1
20260507071026 51 179 1.0 3.0 0.00 0.01 0.00 68 1025.1
20260507070526 51 179 1.0 3.0 0.00 0.01 0.00 68 1025.2
20260507070059 51 179 2.0 3.0 0.00 0.01 0.00 68 1025.1
20260507065525 51 179 1.0 3.0 0.00 0.01 0.01 65 1025.2
20260507065025 51 179 1.0 3.0 0.00 0.01 0.01 67 1025.2
20260507064543 51 179 0.0 2.0 0.00 0.01 0.01 66 1025.1
20260507064026 51 179 1.0 3.0 0.00 0.01 0.01 66 1025.0
20260507063526 51 179 1.0 3.0 0.00 0.01 0.01 65 1025.1
20260507063055 51 179 1.0 3.0 0.00 0.01 0.01 65 1025.1
20260507062526 51 179 1.0 3.0 0.00 0.01 0.01 65 1025.0
20260507062026 51 179 1.0 4.0 0.00 0.01 0.01 65 1025.0
20260507061546 51 179 2.0 4.0 0.00 0.01 0.01 65 1025.0
20260507061023 51 179 2.0 4.0 0.00 0.01 0.01 64 1025.0
20260507060525 51 179 1.0 3.0 0.00 0.01 0.01 65 1025.0
20260507060044 52 179 1.0 3.0 0.00 0.01 0.01 64 1025.0
20260507055524 52 179 1.0 3.0 0.00 0.01 0.01 64 1025.0
20260507055023 52 179 2.0 3.0 0.00 0.01 0.01 64 1024.9
20260507054542 52 179 1.0 3.0 0.00 0.01 0.01 62 1024.9
20260507054024 52 179 2.0 3.0 0.00 0.01 0.01 61 1025.1
20260507053526 52 179 1.0 3.0 0.00 0.01 0.01 61 1025.0
20260507053040 52 179 1.0 3.0 0.00 0.01 0.01 60 1025.0
20260507052523 52 179 2.0 3.0 0.00 0.01 0.01 62 1025.1
20260507052024 52 179 2.0 3.0 0.00 0.01 0.01 62 1025.2
20260507051545 52 179 1.0 3.0 0.00 0.01 0.01 62 1025.0
20260507051025 52 179 2.0 3.0 0.00 0.01 0.01 62 1025.0
20260507050526 52 179 1.0 3.0 0.00 0.01 0.01 62 1025.1
20260507050046 53 179 1.0 3.0 0.00 0.01 0.01 61 1025.1
20260507045525 53 179 1.0 3.0 0.00 0.01 0.01 60 1025.1
20260507045025 53 179 0.0 3.0 0.00 0.01 0.01 59 1025.0
20260507044543 53 179 2.0 3.0 0.00 0.01 0.01 63 1024.9
20260507044025 53 179 1.0 4.0 0.00 0.01 0.01 62 1024.9
20260507043525 53 179 2.0 4.0 0.00 0.01 0.01 63 1024.8
20260507043038 54 179 1.0 4.0 0.00 0.01 0.01 63 1024.8
20260507042524 54 179 2.0 4.0 0.00 0.01 0.01 64 1024.8
20260507042024 54 179 2.0 3.0 0.00 0.01 0.01 63 1024.7
20260507041545 54 179 1.0 3.0 0.00 0.01 0.01 64 1024.7
20260507041026 54 179 0.0 3.0 0.00 0.01 0.01 65 1024.6
20260507040524 54 179 1.0 3.0 0.00 0.01 0.01 65 1024.6
20260507040044 54 179 1.0 3.0 0.00 0.01 0.01 65 1024.5
20260507035526 54 179 2.0 3.0 0.00 0.01 0.01 65 1024.4
20260507035026 54 179 2.0 3.0 0.00 0.01 0.01 65 1024.4
20260507034543 54 179 1.0 3.0 0.00 0.01 0.01 61 1024.4
20260507034026 53 179 1.0 4.0 0.00 0.01 0.01 59 1024.4
20260507033528 54 179 2.0 4.0 0.00 0.01 0.01 58 1024.4
20260507033039 54 179 2.0 4.0 0.00 0.01 0.01 56 1024.3
20260507032524 54 179 1.0 3.0 0.00 0.01 0.01 53 1024.2
20260507032024 54 179 1.0 3.0 0.00 0.01 0.01 51 1024.2
20260507031545 55 179 1.0 3.0 0.00 0.01 0.01 49 1024.1